Location: Il Ritiro
(43.4167°N, 13.1333°E)
Time: 08:07:55
(UTC+00:00)

Cosmos 1110 Rocket - Pass Details

Date: 05 July 2020
Orbit: 752 x 782 km, 74.0° (Epoch: 05 August)

Event Time Altitude Azimuth Distance (km) Brightness Sun altitude
Rises 23:30:53 0° 342° (NNW) 3,252 8.4 -23.8°
Reaches altitude 10° 23:33:19 10° 347° (NNW) 2,326 7.5 -23.7°
Maximum altitude 23:38:32 58° 66° (ENE) 902 4.4 -23.6°
Enters shadow 23:40:15 39° 125° (SE) 1,146 4.6 -23.6°
